Location: Greenwich
(51.4790°N, 0.0090°E)
Time: 11:19:17
(UTC+01:00)

Explorer 7 - All Passes

Search period start: 17 April 2024 00:00
Search period end: 27 April 2024 00:00
Orbit: 468 x 629 km, 50.3° (Epoch: 16 April)

Date Brightness Start Highest point End Pass type
(mag) Time Alt. Az. Time Alt. Az. Time Alt. Az.
17 Apr - 13:03:01 10° SSW 13:06:51 26° SE 13:10:40 10° E daylight
17 Apr - 14:41:41 10° WSW 14:46:15 62° SSE 14:50:43 10° E daylight
17 Apr - 16:21:27 10° W 16:26:03 77° S 16:30:28 10° E daylight
17 Apr - 18:01:23 10° W 18:05:40 44° SSW 18:09:47 10° SE daylight
17 Apr - 19:42:25 10° WSW 19:44:40 14° SW 19:46:50 10° SSW daylight
18 Apr - 12:56:39 10° SSW 13:00:43 31° SSE 13:04:46 10° E daylight
18 Apr - 14:35:37 10° WSW 14:40:12 68° SSE 14:44:43 10° E daylight
18 Apr - 16:15:25 10° W 16:20:00 74° S 16:24:27 10° ESE daylight
18 Apr - 17:55:24 10° W 17:59:35 37° SSW 18:03:35 10° SE daylight
18 Apr - 19:37:22 10° WSW 19:38:25 11° SW 19:39:29 10° SSW daylight
19 Apr - 11:14:23 10° SSE 11:15:40 11° SE 11:16:56 10° ESE daylight
19 Apr - 12:50:20 10° SW 12:54:35 37° SSE 12:58:48 10° E daylight
19 Apr - 14:29:31 10° WSW 14:34:09 73° S 14:38:41 10° E daylight
19 Apr - 16:09:23 10° W 16:13:57 70° S 16:18:22 10° ESE daylight
19 Apr - 17:49:24 10° W 17:53:26 32° SSW 17:57:17 10° SSE daylight
20 Apr - 11:06:59 10° SSE 11:09:23 14° SE 11:11:48 10° ESE daylight
20 Apr - 12:44:03 10° SW 12:48:26 43° SSE 12:52:47 10° E daylight
20 Apr - 14:23:26 10° W 14:28:04 76° S 14:32:37 10° E daylight
20 Apr - 16:03:18 10° W 16:07:52 64° SSW 16:12:16 10° ESE daylight
20 Apr - 17:43:26 10° W 17:47:14 27° SW 17:50:53 10° SSE daylight
21 Apr - 11:00:04 10° S 11:03:06 18° SE 11:06:10 10° E daylight
21 Apr - 12:37:48 10° SW 12:42:16 49° SSE 12:46:43 10° E daylight
21 Apr - 14:17:20 10° W 14:21:58 78° S 14:26:32 10° E daylight
21 Apr - 15:57:12 10° W 16:01:44 58° SSW 16:06:07 10° ESE daylight
21 Apr - 17:37:30 10° W 17:40:59 22° SW 17:44:23 10° SSE daylight
22 Apr - 10:53:21 10° SSW 10:56:50 21° SE 11:00:20 10° E daylight
22 Apr - 12:31:35 10° WSW 12:36:06 56° SSE 12:40:36 10° E daylight
22 Apr - 14:11:13 10° W 14:15:51 78° S 14:20:24 10° E daylight
22 Apr - 15:51:05 10° W 15:55:34 51° SSW 15:59:54 10° SE daylight
22 Apr - 17:31:37 10° W 17:34:43 18° SW 17:37:43 10° S daylight
23 Apr - 10:46:46 10° SSW 10:50:33 26° SE 10:54:22 10° E daylight
23 Apr - 12:25:22 10° WSW 12:29:55 62° SSE 12:34:29 10° E daylight
23 Apr - 14:05:04 10° W 14:09:42 77° S 14:14:16 10° E daylight
23 Apr - 15:44:58 10° W 15:49:22 45° SSW 15:53:37 10° SE daylight
23 Apr - 17:25:53 10° WSW 17:28:23 15° SW 17:30:49 10° S daylight
24 Apr - 10:40:15 10° SSW 10:44:16 31° SSE 10:48:19 10° E daylight
24 Apr - 12:19:08 10° WSW 12:23:44 68° SSE 12:28:19 10° E daylight
24 Apr - 13:58:54 10° W 14:03:31 74° S 14:08:05 10° ESE daylight
24 Apr - 15:38:50 10° W 15:43:06 38° SSW 15:47:16 10° SE daylight
24 Apr - 17:20:28 10° WSW 17:22:00 12° SW 17:23:31 10° SSW daylight
25 Apr - 08:58:05 10° SE 08:59:06 11° SE 09:00:07 10° ESE daylight
25 Apr - 10:33:47 10° SW 10:37:58 36° SSE 10:42:12 10° E daylight
25 Apr - 12:12:55 10° WSW 12:17:31 73° S 12:22:08 10° E daylight
25 Apr - 13:52:43 10° W 13:57:19 70° SSW 14:01:52 10° ESE daylight
25 Apr - 15:32:42 10° W 15:36:49 33° SSW 15:40:51 10° SSE daylight
26 Apr - 08:50:25 10° SSE 08:52:41 14° SE 08:54:58 10° ESE daylight
26 Apr - 10:27:22 10° SW 10:31:40 42° SSE 10:36:02 10° E daylight
26 Apr - 12:06:42 10° W 12:11:18 76° S 12:15:54 10° E daylight
26 Apr - 13:46:30 10° W 13:51:05 65° SSW 13:55:37 10° ESE daylight
26 Apr - 15:26:35 10° W 15:30:29 28° SW 15:34:18 10° SSE daylight
